Location: *
(55.6049°S, 142.1985°W)
Time: 15:06:57
(UTC+00:00)

Spot 2 - Pass Details

Date: 12 May 2021
Orbit: 569 x 774 km, 98.7° (Epoch: 18 June)

Event Time Altitude Azimuth Distance (km) Brightness Sun altitude
Rises 14:44:16 0° 23° (NNE) 2,933 7.9 -20.7°
Reaches altitude 10° 14:46:24 10° 23° (NNE) 2,061 7.0 -20.4°
Maximum altitude 14:50:54 80° 109° (ESE) 705 4.3 -19.8°
Drops below altitude 10° 14:55:46 10° 195° (SSW) 2,219 6.7 -19.1°
Sets 14:58:07 0° 196° (SSW) 3,177 7.5 -18.8°
